Location: Marse
(42.1502°N, 110.9866°W)
Time: 02:38:54
(UTC+00:00)

M-CUBED/EXP-1 PRIME - Visible Passes

Search period start: 26 June 2022 00:00
Search period end: 06 July 2022 00:00
Orbit: 423 x 634 km, 101.7° (Epoch: 25 June)

Date Brightness Start Highest point End Pass type
(mag) Time Alt. Az. Time Alt. Az. Time Alt. Az.
26 Jun ? 07:27:42 15° ENE 07:28:00 15° ENE 07:29:54 10° NNE visible
26 Jun ? 09:02:57 21° WNW 09:02:57 21° WNW 09:04:31 10° NW visible
27 Jun ? 07:16:30 10° ENE 07:17:08 11° ENE 07:17:51 10° NE visible
27 Jun ? 08:51:45 30° NW 08:51:45 30° NW 08:53:45 10° NNW visible
28 Jun ? 08:40:31 42° NW 08:40:31 42° NW 08:42:51 10° NNW visible
29 Jun ? 08:29:17 50° N 08:29:17 50° N 08:31:51 10° NNW visible
30 Jun ? 08:18:02 43° NE 08:18:02 43° NE 08:20:46 10° N visible
01 Jul ? 08:06:46 31° ENE 08:06:46 31° ENE 08:09:35 10° N visible
01 Jul ? 09:42:01 10° WNW 09:42:01 10° WNW 09:42:11 10° WNW visible
02 Jul ? 07:55:30 22° ENE 07:55:37 22° ENE 07:58:16 10° N visible
02 Jul ? 09:30:44 15° WNW 09:30:44 15° WNW 09:31:53 10° NW visible
03 Jul ? 07:44:12 16° ENE 07:44:40 16° ENE 07:46:47 10° NNE visible
03 Jul ? 09:19:27 22° WNW 09:19:27 22° WNW 09:21:14 10° NW visible
04 Jul ? 07:32:54 11° ENE 07:33:43 12° ENE 07:34:55 10° NE visible
04 Jul ? 09:08:09 32° WNW 09:08:09 32° WNW 09:10:24 10° NNW visible
05 Jul ? 08:56:50 47° NW 08:56:50 47° NW 08:59:27 10° NNW visible
